Retour au catalogue

GALILEO 10 (206)

ActifNavigationMEO
NORAD 40890·PAYLOAD·🇪🇺 EU

Lancé Sep 11, 2015 depuis Guiana Space Centre

Loading…

Prochains Passages (prochaines 24 heures)

TLE

FraisSource: CelesTrak SupGP

Époque: Sep 13, 2026, 23:59 UTC

1 40890C 15045B   26256.99979167  .00000000  00000+0  00000+0 0  2568
2 40890  54.9247 219.1530 0002666 351.2001 349.3656  1.70473263    17

Suivez GALILEO 10 (206) en temps réel avec AllMySat

Download on the App Store